Skip Page Navigation
NASA JPL Caltech
NASA Logo - Jet Propulsion Laboratory + View the NASA Portal
+ Center for Near-Earth Object Studies
JPL Home Earth Solar System Stars & Galaxies Technology
JPL Solar System Dynamics
BODIES ORBITS EPHEMERIDES TOOLS PHYSICAL DATA DISCOVERY FAQ SITE MAP
JPL Small-Body Database Browser
Search: [ help ]  
160853 (2001 DA11)
Classification: Main-belt Asteroid          SPK-ID: 2160853
Ephemeris | Orbit Diagram | Orbital Elements | Mission Design | Physical Parameters | Discovery Circumstances | Close-Approach Data ]

[ hide orbit diagram ]

For accurate long-term ephemerides, please instead use our Horizons system.This orbit viewer was implemented using two-body methods, and hence should not be used for determining accurate long-term trajectories (over several years or decades) or planetary encounter circumstances.


Orbital Elements at Epoch 2459200.5 (2020-Dec-17.0) TDB
Reference: JPL 23 (heliocentric ecliptic J2000)
 Element Value Uncertainty (1-sigma)   Units 
e .04608183682194684 3.8941e-08  
a 2.642888377756194 1.8006e-08 au
q 2.521099226793813 9.6146e-08 au
i 14.10561656887709 7.2818e-06 deg
node 337.8513518041319 1.572e-05 deg
peri 278.9157554893324 9.5045e-05 deg
M 118.0100570270762 9.6638e-05 deg
tp 2458686.061837872793
(2019-Jul-21.56183787)
0.00041951 TDB
period 1569.338605804613
4.30
1.6038e-05
4.391e-08
d
yr
n .229396000753722 2.3443e-09 deg/d
Q 2.764677528718575 1.8836e-08 au
  Orbit Determination Parameters
   # obs. used (total)      654  
   data-arc span      7275 days (19.92 yr)  
   first obs. used      2001-01-19  
   last obs. used      2020-12-20  
   planetary ephem.      DE441  
   SB-pert. ephem.      SB441-N16  
   condition code      0  
   norm. resid. RMS      .53482  
   source      ORB  
   producer      Otto Matic  
   solution date      2021-Apr-13 20:03:04  

Additional Information
 Earth MOID = 1.54799 au 
 Jupiter MOID = 2.33136 au 
 T_jup = 3.350 
[ show covariance matrix ]

Ephemeris | Orbit Diagram | Orbital Elements | Mission Design | Physical Parameters | Discovery Circumstances | Close-Approach Data ]

Physical Parameter Table
Parameter Symbol Value Units Sigma Reference Notes
absolute magnitude H 15.44   n/a MPCxxxxx  
diameter diameter 2.610 km 0.616 urn:nasa:pds:neowise_diameters_albedos::2.0[mainbelt] (http://adsabs.harvard.edu/abs/2011ApJ...741...68M)  
geometric albedo albedo 0.237   0.049 urn:nasa:pds:neowise_diameters_albedos::2.0[mainbelt] (http://adsabs.harvard.edu/abs/2011ApJ...741...68M)  

160853 (2001 DA11)          Discovered 2001-Feb-17 by LINEAR at Socorro
Reference: 20070828/Numbers.arcLast Updated: 2007-08-30

[ show close-approach data ]
Ephemeris | Orbit Diagram | Orbital Elements | Mission Design | Physical Parameters | Discovery Circumstances | Close-Approach Data ]
ABOUT SSD CREDITS/AWARDS PRIVACY/COPYRIGHT GLOSSARY LINKS
FirstGov 2021-May-06 20:14 UT
(server date/time)  
NASA Home Page
Site Manager:   Ryan S. Park
Webmaster  Alan B. Chamberlin